Weather History for KPBH - March, 2013

Change the Weather History Date:

Monday, March 4, 2013

  Actual Average Record
Temperature  
Mean Temperature 20 °F -  
Max Temperature 33 °F 27 °F 39 °F (2009)
Min Temperature 6 °F 10 °F -16 °F (2002)
Degree Days  
Heating Degree Days 46    
Moisture  
Dew Point 7 °F    
Average Humidity 52    
Maximum Humidity 79    
Minimum Humidity 25    
Precipitation  
Precipitation 0.00 in - - ()
Sea Level Pressure  
Sea Level Pressure 30.05 in    
Wind  
Wind Speed 4 mph (ESE)    
Max Wind Speed 9 mph    
Max Gust Speed -    
Visibility 10 miles    
Events      
Averages and records for this station are not official NWS values.
T = Trace of Precipitation, MM = Missing Value Source: NWS Daily Summary

Daily Weather History Graph

Daily Weather History Graph

Search for Another Location

Airport or City:

Trip Planner

Search our weather history database for the weather conditions in past years. The results will help you decide how hot, cold, wet, or windy it might be!

Date:

Astronomy

Mar. 04, 2013 Rise Set
Actual Time 6:34 AM CST 5:52 PM CST
Civil Twilight 6:04 AM CST 6:22 PM CST
Nautical Twilight 5:30 AM CST 6:57 PM CST
Astronomical Twilight 4:55 AM CST 7:31 PM CST
Moon 12:56 AM CST (3/4) 10:21 AM CST (3/4)
Length of Visible Light 12h 18m
Length of Day
11h 18m
Waning Gibbous, 52% of the Moon is Illuminated
Mar 4
Waning Gibbous
Mar 4
Last Quarter
Mar 11
New
Mar 19
First Quarter
Mar 27
Full

Hourly Weather History & Observations

Time (CST) Temp. Windchill Dew Point Humidity Pressure Visibility Wind Dir Wind Speed Gust Speed Precip Events Conditions
12:15 AM 8.6 °F - 1.4 °F 73% 30.05 in 10.0 mi Calm Calm - N/A   Clear
12:35 AM 6.8 °F - 1.4 °F 79% 30.05 in 10.0 mi Calm Calm - N/A   Clear
12:55 AM 6.8 °F - -0.4 °F 72% 30.05 in 10.0 mi Calm Calm - N/A   Clear
1:15 AM 8.6 °F - 1.4 °F 73% 30.05 in 10.0 mi Calm Calm - N/A   Scattered Clouds
1:55 AM 15.8 °F - 3.2 °F 58% 30.06 in 10.0 mi Calm Calm - N/A   Overcast
2:15 AM 10.4 °F - 3.2 °F 73% 30.06 in 10.0 mi Calm Calm - N/A   Overcast
2:35 AM 8.6 °F - 1.4 °F 73% 30.06 in 10.0 mi Calm Calm - N/A   Mostly Cloudy
2:55 AM 8.6 °F - 1.4 °F 73% 30.06 in 10.0 mi Calm Calm - N/A   Scattered Clouds
3:15 AM 8.6 °F - 1.4 °F 73% 30.06 in 10.0 mi Calm Calm - N/A   Clear
3:35 AM 10.4 °F - 1.4 °F 67% 30.06 in 10.0 mi Calm Calm - N/A   Clear
3:55 AM 12.2 °F 6.1 °F 3.2 °F 67% 30.06 in 10.0 mi East 3.5 mph - N/A   Clear
4:15 AM 14.0 °F 8.2 °F 3.2 °F 62% 30.06 in 10.0 mi ESE 3.5 mph - N/A   Clear
4:35 AM 14.0 °F 6.5 °F 3.2 °F 62% 30.06 in 10.0 mi ESE 4.6 mph - N/A   Clear
4:55 AM 14.0 °F 6.5 °F 3.2 °F 62% 30.07 in 10.0 mi East 4.6 mph - N/A   Clear
5:15 AM 15.8 °F 8.6 °F 3.2 °F 58% 30.06 in 10.0 mi ESE 4.6 mph - N/A   Clear
5:55 AM 14.0 °F 6.5 °F 5.0 °F 67% 30.06 in 10.0 mi East 4.6 mph - N/A   Clear
6:15 AM 14.0 °F 3.9 °F 6.8 °F 73% 30.06 in 10.0 mi East 6.9 mph - N/A   Clear
6:35 AM 14.0 °F 3.9 °F 6.8 °F 73% 30.07 in 10.0 mi ESE 6.9 mph - N/A   Clear
6:55 AM 14.0 °F 3.9 °F 6.8 °F 73% 30.07 in 10.0 mi ESE 6.9 mph - N/A   Clear
7:15 AM 14.0 °F 5.1 °F 6.8 °F 73% 30.07 in 10.0 mi ESE 5.8 mph - N/A   Clear
7:35 AM 15.8 °F 7.2 °F 8.6 °F 73% 30.07 in 10.0 mi ESE 5.8 mph - N/A   Clear
7:55 AM 15.8 °F 7.2 °F 8.6 °F 73% 30.07 in 10.0 mi ESE 5.8 mph - N/A   Clear
8:15 AM 15.8 °F 6.1 °F 8.6 °F 73% 30.08 in 10.0 mi ESE 6.9 mph - N/A   Clear
8:35 AM 17.6 °F 8.2 °F 10.4 °F 73% 30.08 in 10.0 mi ESE 6.9 mph - N/A   Clear
8:55 AM 17.6 °F 8.2 °F 10.4 °F 73% 30.07 in 10.0 mi ESE 6.9 mph - N/A   Clear
9:15 AM 19.4 °F 10.4 °F 10.4 °F 68% 30.07 in 10.0 mi East 6.9 mph - N/A   Clear
9:35 AM 21.2 °F 13.6 °F 10.4 °F 63% 30.07 in 10.0 mi SE 5.8 mph - N/A   Clear
9:55 AM 23.0 °F 13.1 °F 10.4 °F 59% 30.07 in 10.0 mi SE 9.2 mph - N/A   Clear
10:15 AM 24.8 °F 16.9 °F 10.4 °F 54% 30.06 in 10.0 mi East 6.9 mph - N/A   Clear
10:35 AM 26.6 °F 19.1 °F 8.6 °F 47% 30.06 in 10.0 mi ESE 6.9 mph - N/A   Clear
10:55 AM 26.6 °F 17.5 °F 8.6 °F 47% 30.06 in 10.0 mi ESE 9.2 mph - N/A   Clear
11:15 AM 26.6 °F 17.5 °F 8.6 °F 47% 30.06 in 10.0 mi SE 9.2 mph - N/A   Scattered Clouds
11:35 AM 28.4 °F 21.2 °F 6.8 °F 40% 30.06 in 10.0 mi ESE 6.9 mph - N/A   Scattered Clouds
11:55 AM 28.4 °F 19.7 °F 6.8 °F 40% 30.05 in 10.0 mi SE 9.2 mph - N/A   Scattered Clouds
12:15 PM 30.2 °F 21.9 °F 5.0 °F 34% 30.05 in 10.0 mi SE 9.2 mph - N/A   Scattered Clouds
12:55 PM 30.2 °F 22.6 °F 3.2 °F 32% 30.03 in 10.0 mi SE 8.1 mph - N/A   Scattered Clouds
1:15 PM 30.2 °F 24.3 °F 5.0 °F 34% 30.03 in 10.0 mi ESE 5.8 mph - N/A   Clear
1:35 PM 32.0 °F 25.6 °F 3.2 °F 30% 30.02 in 10.0 mi East 6.9 mph - N/A   Clear
1:55 PM 33.8 °F 29.6 °F 3.2 °F 28% 30.01 in 10.0 mi ESE 4.6 mph - N/A   Scattered Clouds
2:15 PM 33.8 °F 29.6 °F 1.4 °F 25% 30.01 in 10.0 mi SE 4.6 mph - N/A   Scattered Clouds
2:35 PM 33.8 °F 28.6 °F 1.4 °F 25% 30.01 in 10.0 mi ESE 5.8 mph - N/A   Mostly Cloudy
2:55 PM 33.8 °F 28.6 °F 3.2 °F 28% 30.01 in 10.0 mi ESE 5.8 mph - N/A   Scattered Clouds
3:15 PM 33.8 °F 26.4 °F 3.2 °F 28% 30.01 in 10.0 mi SE 9.2 mph - N/A   Scattered Clouds
3:35 PM 33.8 °F 27.7 °F 3.2 °F 28% 30.01 in 10.0 mi SE 6.9 mph - N/A   Mostly Cloudy
3:55 PM 33.8 °F 26.4 °F 3.2 °F 28% 30.01 in 10.0 mi SE 9.2 mph - N/A   Overcast
4:15 PM 33.8 °F 27.0 °F 5.0 °F 30% 30.02 in 10.0 mi SE 8.1 mph - N/A   Overcast
4:35 PM 33.8 °F 27.7 °F 3.2 °F 28% 30.01 in 10.0 mi SSE 6.9 mph - N/A   Overcast
4:55 PM 33.8 °F 27.7 °F 6.8 °F 32% 30.01 in 10.0 mi SE 6.9 mph - N/A   Overcast
5:15 PM 32.0 °F 27.5 °F 5.0 °F 32% 30.02 in 10.0 mi SE 4.6 mph - N/A   Overcast
5:35 PM 33.8 °F 30.8 °F 6.8 °F 32% 30.01 in 10.0 mi ESE 3.5 mph - N/A   Overcast
5:55 PM 33.8 °F 28.6 °F 6.8 °F 32% 30.02 in 10.0 mi ESE 5.8 mph - N/A   Overcast
6:15 PM 32.0 °F 27.5 °F 8.6 °F 38% 30.03 in 10.0 mi ESE 4.6 mph - N/A   Overcast
6:35 PM 32.0 °F 26.4 °F 8.6 °F 38% 30.04 in 10.0 mi SE 5.8 mph - N/A   Overcast
6:55 PM 32.0 °F 26.4 °F 10.4 °F 41% 30.04 in 10.0 mi ESE 5.8 mph - N/A   Overcast
7:15 PM 32.0 °F 26.4 °F 10.4 °F 41% 30.04 in 10.0 mi ESE 5.8 mph - N/A   Overcast
7:35 PM 30.2 °F 25.4 °F 12.2 °F 47% 30.04 in 10.0 mi ESE 4.6 mph - N/A   Overcast
7:55 PM 30.2 °F 24.3 °F 12.2 °F 47% 30.04 in 10.0 mi East 5.8 mph - N/A   Overcast
8:35 PM 30.2 °F 23.4 °F 12.2 °F 47% 30.03 in 10.0 mi East 6.9 mph - N/A   Mostly Cloudy
8:55 PM 30.2 °F 24.3 °F 12.2 °F 47% 30.03 in 10.0 mi East 5.8 mph - N/A   Mostly Cloudy
9:15 PM 30.2 °F 25.4 °F 14.0 °F 51% 30.03 in 10.0 mi ESE 4.6 mph - N/A   Unknown
9:35 PM 30.2 °F 26.7 °F 12.2 °F 47% 30.04 in 10.0 mi ESE 3.5 mph - N/A   Overcast
9:55 PM 30.2 °F 25.4 °F 12.2 °F 47% 30.04 in 10.0 mi ESE 4.6 mph - N/A   Overcast
10:15 PM 30.2 °F 23.4 °F 12.2 °F 47% 30.04 in 10.0 mi ESE 6.9 mph - N/A   Overcast
10:55 PM 30.2 °F 23.4 °F 14.0 °F 51% 30.06 in 10.0 mi SE 6.9 mph - N/A   Overcast
11:15 PM 30.2 °F 24.3 °F 14.0 °F 51% 30.06 in 10.0 mi SE 5.8 mph - N/A   Overcast
11:35 PM 28.4 °F 19.7 °F 15.8 °F 59% 30.06 in 10.0 mi SE 9.2 mph - N/A   Overcast
11:55 PM 28.4 °F 22.2 °F 14.0 °F 55% 30.07 in 10.0 mi SSE 5.8 mph - N/A   Overcast